Location: Newark
(49.4569°N, 2.2158°E)
Time: 19:57:05
(UTC+00:00)

LilacSat-2 - Visible Passes

Search period start: 27 February 2021 00:00
Search period end: 09 March 2021 00:00
Orbit: 513 x 533 km, 97.5° (Epoch: 27 February)

Date Brightness Start Highest point End Pass type
(mag) Time Alt. Az. Time Alt. Az. Time Alt. Az.
27 Feb ? 04:58:22 10° NE 05:01:28 23° E 05:04:31 10° SSE visible
28 Feb ? 04:46:12 10° NE 04:48:47 17° E 04:51:20 10° SE visible
01 Mar ? 04:34:18 10° ENE 04:36:04 13° E 04:37:50 10° ESE visible
02 Mar ? 05:54:18 10° NNE 05:58:08 86° WNW 06:01:55 10° SSW visible
03 Mar ? 05:41:45 10° NNE 05:45:34 69° ESE 05:49:19 10° S visible
03 Mar ? 18:03:09 10° WSW 18:05:06 13° W 18:07:03 10° WNW visible
04 Mar ? 05:29:14 10° NNE 05:32:57 49° E 05:36:37 10° S visible
05 Mar ? 05:16:47 10° NNE 05:20:19 35° E 05:23:48 10° SSE visible
06 Mar ? 05:04:24 10° NE 05:07:39 26° E 05:10:52 10° SSE visible
07 Mar ? 04:52:09 10° NE 04:54:59 20° E 04:57:46 10° SE visible
08 Mar ? 04:40:05 10° NE 04:42:16 15° E 04:44:26 10° SE visible
